GFSNGP_500_rhum_000.txt.gz
RH
45 46 44 47 61 58 62 67 73 84 82 78 79 78 76 73 70 69 65 60 59 59 59 64 64 61 56 76 80 97 97 84 24 24 28 36 30 30 29 20 28 72 85 83
38 41 44 43 57 67 66 79 82 87 88 85 75 70 70 66 61 56 54 58 56 54 55 56 56 59 71 90 100 98 99 22 22 30 32 29 28 22 22 31 86 91 85 77
34 39 43 50 49 53 67 75 79 81 75 71 68 64 62 58 58 53 47 46 48 53 58 56 85 100 90 66 65 33 18 26 33 37 29 20 20 23 40 92 96 85 59 35
33 41 40 48 51 56 63 71 72 70 64 57 56 55 52 44 43 43 51 57 59 61 59 58 56 58 46 25 18 22 33 42 34 27 18 20 24 65 100 96 72 40 23 20
36 38 42 51 45 54 56 59 53 59 54 55 53 45 52 51 58 60 63 66 65 63 65 61 47 35 24 23 27 40 38 36 26 17 22 26 86 100 91 58 28 24 21 17
39 48 52 58 50 50 49 50 54 56 54 54 60 55 59 59 68 73 73 68 66 67 62 50 40 29 26 32 41 40 39 28 20 25 23 84 100 78 49 28 26 21 16 19
49 56 56 67 62 54 56 59 59 59 63 65 62 64 62 72 78 75 70 70 68 62 51 37 28 28 38 42 40 40 28 25 27 26 78 100 79 49 31 28 22 19 26 40
52 63 64 73 61 64 62 62 63 64 71 70 70 72 76 77 73 71 69 68 62 47 32 29 32 39 44 39 36 28 27 30 30 49 100 88 56 36 32 28 20 27 57 80
65 73 83 74 71 73 66 65 67 77 80 78 76 73 71 72 70 69 68 55 38 30 28 33 40 39 33 30 25 28 31 33 36 98 96 64 44 36 36 26 21 51 74 84
64 83 72 76 77 81 80 85 88 89 82 79 77 71 70 67 67 61 44 31 24 22 26 29 30 31 24 23 24 27 32 38 90 100 67 52 42 42 38 26 31 60 79 89
75 84 80 86 86 88 85 84 83 83 84 75 65 64 65 64 52 42 28 14 14 21 24 25 21 20 22 19 24 36 43 94 100 71 57 50 46 44 40 26 37 58 81 94
82 79 77 76 80 88 91 92 88 77 66 64 67 68 60 48 36 18 12 13 20 26 23 19 21 17 15 20 31 45 100 100 75 59 56 53 52 50 45 28 38 56 85 100
80 77 79 81 83 85 86 78 71 69 70 68 67 55 46 25 11 12 18 24 25 21 21 20 15 19 22 32 74 100 100 84 56 50 56 57 58 55 49 28 38 64 87 100
79 82 80 75 81 83 80 76 74 73 70 63 52 36 16 15 18 22 24 22 21 23 18 19 24 32 56 98 99 100 98 53 33 33 61 64 64 61 55 29 39 66 90 100
83 81 86 88 88 84 79 78 72 65 60 47 24 14 16 19 21 23 20 20 23 19 21 25 38 79 99 96 100 100 86 44 27 38 67 69 70 68 64 38 32 61 89 93
94 93 91 92 86 81 74 67 64 56 33 15 13 14 17 19 20 18 20 21 18 22 25 37 83 95 98 93 100 100 78 49 29 46 73 72 75 73 70 57 29 48 77 98
94 92 84 75 71 71 70 62 44 20 12 12 14 15 17 17 17 22 20 19 25 30 34 75 94 100 92 79 95 100 65 52 28 64 80 77 78 76 70 70 46 29 60 87
86 77 74 75 73 67 55 31 14 12 15 15 15 16 15 20 22 20 18 23 34 36 41 77 94 100 87 76 94 100 72 47 49 81 83 80 77 73 71 70 68 43 32 67
79 76 78 74 63 44 23 12 14 17 17 17 17 16 22 23 22 22 21 34 38 40 41 59 92 100 92 78 89 99 82 65 76 92 83 76 68 70 70 65 67 67 46 33
77 77 68 52 31 15 17 20 18 18 18 18 20 24 22 24 27 23 30 41 39 46 44 67 87 93 91 83 83 99 98 93 97 91 79 62 57 67 72 62 61 64 69 52
71 58 40 20 14 20 24 22 19 18 19 25 26 23 25 26 20 20 29 40 41 44 54 86 94 95 94 88 86 100 100 99 100 88 70 60 54 63 70 63 57 57 62 70
46 28 22 23 22 23 23 22 20 22 26 27 26 28 28 21 23 28 31 39 43 46 75 90 89 89 93 85 98 100 100 100 95 83 73 66 60 62 72 66 59 54 55 65
22 24 24 24 25 22 22 23 26 31 30 31 33 30 25 31 30 20 30 46 47 45 72 87 92 96 90 96 100 100 100 99 96 88 77 70 72 64 73 74 64 57 54 58
23 27 29 29 26 25 25 27 35 35 37 39 41 35 30 34 49 36 33 45 50 47 80 97 95 95 98 99 96 97 100 100 99 92 85 80 76 75 69 84 77 69 63 63
32 32 30 29 27 27 33 38 37 40 44 47 50 46 46 58 52 60 68 65 55 55 69 92 100 100 100 84 86 100 100 100 100 98 90 89 84 84 73 81 85 77 69 64
36 34 31 30 29 34 42 42 41 45 47 49 57 56 53 57 70 76 89 98 99 100 100 99 100 100 92 88 85 100 100 100 100 96 81 85 86 90 81 81 87 83 75 69
36 33 32 30 33 39 42 49 52 54 54 52 55 60 57 55 58 77 92 96 95 93 94 100 100 94 100 98 100 100 100 100 99 94 84 86 90 96 84 86 90 87 80 75

GFSNGP_500_rhum_006.txt.gz
RH
26 21 20 18 23 28 30 34 40 43 44 73 58 68 46 62 55 45 48 54 52 41 32 34 37 40 43 53 62 56 52 42 22 7 7 14 20 21 19 20 18 20 27 42
20 18 16 16 24 29 29 34 45 54 54 78 48 50 50 48 50 50 51 47 41 37 37 40 45 46 52 57 57 48 36 12 6 9 14 16 19 21 21 20 22 30 44 100
20 19 17 17 24 29 30 32 47 57 58 52 53 56 58 57 56 55 53 44 39 40 41 40 47 52 53 49 46 22 8 8 13 18 40 46 25 30 25 22 38 62 100 74
21 21 19 16 21 32 36 38 49 60 67 69 70 76 76 54 52 50 43 42 46 46 43 42 48 49 46 42 22 8 10 13 15 21 19 88 37 42 29 44 84 100 63 51
22 20 19 16 19 37 35 45 43 60 67 75 75 69 64 51 49 47 48 50 52 51 54 53 43 41 41 24 8 10 11 12 15 27 56 100 100 33 47 98 97 66 55 51
22 21 20 19 22 30 37 42 42 45 49 51 51 51 56 54 55 58 59 58 51 52 46 46 47 43 22 9 11 12 10 13 16 24 91 100 57 49 98 90 68 58 56 57
20 22 22 21 26 34 40 39 48 59 54 59 61 60 55 54 55 54 48 50 54 54 50 49 42 18 10 12 10 10 14 15 18 45 100 44 41 95 88 62 59 60 62 59
23 25 22 21 25 29 41 58 54 59 64 69 67 62 58 60 58 52 55 59 58 53 50 37 15 11 11 10 10 16 15 15 17 24 37 48 88 88 52 62 67 64 59 57
22 26 26 26 26 30 56 65 71 72 72 70 71 62 63 59 59 63 64 62 54 50 36 15 11 11 10 12 16 15 16 16 20 44 75 88 89 52 45 70 68 65 56 55
25 27 29 28 32 44 59 71 81 83 74 70 65 65 69 72 73 69 68 57 51 32 13 11 11 11 15 20 18 17 18 34 66 81 86 95 70 32 51 74 72 70 53 49
29 30 29 41 58 71 73 89 89 85 75 70 69 75 75 80 79 72 60 54 34 14 11 11 11 16 21 21 19 20 36 67 76 88 96 93 62 40 43 78 75 68 50 45
32 31 40 54 66 72 91 96 90 80 78 82 90 91 93 87 74 64 56 32 14 12 11 11 15 21 21 21 26 29 58 74 75 76 95 91 75 47 49 80 76 59 51 49
36 42 57 74 88 87 90 86 79 78 84 89 96 97 93 77 68 58 29 14 12 11 11 15 20 22 24 28 31 50 72 76 71 74 95 92 77 59 64 82 63 48 48 41
59 61 57 76 96 91 86 84 82 83 85 93 100 96 84 71 58 30 13 12 11 11 14 19 22 25 23 33 34 39 81 80 74 76 93 89 77 63 78 78 55 44 43 37
60 72 88 94 97 93 84 84 81 83 92 100 96 87 73 57 30 15 13 12 10 13 19 19 22 21 22 39 41 37 59 90 78 75 85 94 78 76 88 72 56 45 44 36
75 92 99 98 88 81 84 81 82 89 94 94 88 74 53 29 17 13 12 12 14 19 19 21 18 14 26 40 46 42 51 84 81 80 88 92 88 92 90 71 58 48 47 41
95 93 90 82 77 78 76 80 88 91 96 93 75 52 31 17 14 12 12 15 21 20 23 19 15 15 32 42 45 48 78 87 88 88 97 98 95 96 85 73 61 53 48 52
91 86 82 84 85 82 88 92 99 100 95 78 57 33 20 15 13 12 15 21 21 22 25 19 18 21 41 41 50 81 86 81 84 88 98 99 97 96 88 77 69 58 53 53
96 85 92 99 98 98 100 100 100 95 80 59 34 20 16 14 14 17 21 25 23 25 27 23 19 33 40 46 70 80 82 82 85 94 96 97 97 95 93 85 73 63 56 52
100 100 100 100 100 100 100 100 91 79 49 29 21 17 14 14 18 21 24 26 30 32 33 31 30 43 45 43 62 81 86 84 92 94 95 97 97 96 96 88 72 62 57 55
100 100 99 100 100 100 99 86 61 35 24 21 18 16 14 18 22 25 29 27 33 36 41 42 43 44 51 51 71 91 91 94 87 82 88 99 100 98 94 85 72 64 58 57
99 98 98 100 100 95 66 44 30 25 22 20 18 17 19 23 25 26 35 36 38 40 43 50 56 63 71 68 80 93 90 91 90 91 91 98 100 100 95 89 76 64 59 58
99 98 97 92 70 45 30 27 26 24 21 20 22 23 22 23 29 33 34 46 45 45 46 53 66 78 87 98 99 94 87 87 92 100 100 100 100 100 97 90 76 73 65 60
94 78 53 39 33 31 29 27 26 25 25 24 24 23 23 24 33 50 52 51 50 51 49 52 64 72 78 89 93 94 91 87 95 100 100 100 100 100 100 97 86 82 70 62
45 38 34 33 32 32 34 32 27 28 26 25 27 31 37 44 47 50 61 63 60 68 71 60 62 68 74 80 84 97 100 98 100 100 98 100 100 100 100 100 94 88 83 66
35 34 34 36 37 36 35 33 28 28 32 35 36 44 51 59 68 73 72 71 70 83 87 89 91 90 92 94 95 99 100 100 100 100 100 100 100 100 100 100 100 95 95 83
38 36 38 37 35 33 30 31 35 33 41 45 47 61 70 78 87 86 80 78 87 94 92 90 93 97 100 100 100 100 100 100 100 100 100 100 100 100 100 100 100 99 96 92

GFSNGP_500_rhum_009.txt.gz
RH
20 18 17 17 16 15 15 22 25 27 30 27 32 41 52 62 53 53 64 66 57 50 45 43 43 40 40 48 47 46 45 41 33 19 12 12 10 13 100 95 41 90 100 44
20 20 20 19 19 17 15 21 27 29 34 29 38 56 68 65 66 69 72 64 56 52 49 43 38 42 47 47 47 45 43 30 14 12 10 8 12 74 100 100 79 100 76 97
21 21 21 21 20 19 18 19 24 28 29 32 42 51 49 52 60 62 61 59 53 48 42 42 44 47 46 46 46 44 32 16 12 10 8 10 15 60 100 100 96 100 85 76
21 21 20 19 19 19 19 20 23 30 30 37 44 41 45 57 62 60 60 56 50 44 44 46 50 55 52 51 47 32 18 13 9 7 9 13 18 42 100 92 100 85 68 58
20 21 21 20 19 20 20 21 26 33 37 44 50 58 59 63 64 63 59 54 51 51 56 64 67 60 55 49 32 18 12 9 7 12 13 13 22 100 73 56 84 54 63 65
20 21 20 18 16 18 20 21 26 29 40 52 64 73 80 78 73 70 66 62 57 64 69 66 62 60 53 35 18 13 10 8 12 16 16 14 17 31 49 88 44 67 70 62
20 21 21 20 18 21 22 24 26 31 46 50 59 70 75 73 68 62 58 60 65 62 67 68 66 56 38 23 14 10 8 14 18 18 21 41 63 76 84 48 51 70 70 67
21 21 20 19 19 23 26 26 28 41 47 49 55 68 70 68 65 61 61 59 61 67 73 72 59 39 24 16 11 9 14 17 22 25 52 70 88 88 80 46 51 67 73 61
23 22 23 23 24 32 28 30 36 45 50 58 69 73 69 66 63 63 62 68 74 79 79 62 44 25 17 12 9 16 18 20 25 49 68 74 73 85 80 54 47 68 69 47
22 24 29 46 36 34 32 34 48 51 58 75 77 76 72 68 62 56 65 81 88 84 66 49 30 17 13 9 13 19 20 25 31 62 74 74 72 87 85 70 59 74 61 45
25 27 30 34 34 36 40 54 50 55 79 82 81 77 73 64 57 66 86 97 88 69 51 33 19 14 11 10 16 21 21 30 38 68 75 64 72 91 85 74 64 77 55 44
25 40 47 41 44 45 62 56 62 82 88 86 78 74 62 58 71 91 100 92 76 54 33 21 15 12 10 13 16 18 19 33 35 66 78 70 77 92 86 71 75 76 55 44
68 70 54 50 47 66 71 77 82 92 89 78 70 62 62 72 95 100 97 82 62 36 21 16 13 11 13 15 13 13 24 38 34 46 75 71 70 89 86 78 86 72 57 46
51 52 47 45 66 67 72 86 94 94 82 77 75 74 76 89 99 99 90 73 40 20 16 14 12 14 16 16 12 12 28 43 39 43 74 75 74 89 90 90 87 69 59 48
37 34 31 38 59 78 81 82 87 82 77 78 84 80 82 91 94 94 72 41 20 17 15 13 16 17 20 17 15 19 33 45 44 59 81 81 81 89 88 89 83 70 57 51
52 58 72 85 88 92 95 97 94 92 94 90 86 86 94 96 93 73 37 22 19 16 15 18 20 19 23 18 17 29 36 42 71 84 84 80 80 87 90 92 86 76 64 54
80 97 100 93 86 90 100 100 100 100 96 93 90 96 97 94 70 36 26 21 18 17 20 23 23 24 29 23 28 36 40 63 75 75 78 78 82 90 93 93 89 78 68 56
100 100 100 97 97 93 95 100 100 100 100 95 95 98 89 58 34 27 23 19 18 20 25 27 27 31 36 31 38 43 42 50 69 78 78 82 85 88 92 93 88 80 69 57
100 100 100 100 99 100 100 100 100 100 100 100 93 73 46 32 28 24 21 19 21 21 25 31 35 40 40 38 44 52 50 52 73 85 85 77 75 86 96 95 88 81 71 56
87 97 100 100 100 100 100 100 99 100 99 82 55 37 30 27 24 22 20 20 23 22 30 39 39 44 46 49 57 61 57 69 91 94 84 81 84 88 95 94 90 83 72 60
100 100 100 100 100 100 100 100 97 90 59 39 33 28 26 25 22 20 21 23 24 31 43 50 50 47 51 61 73 81 88 96 94 93 84 81 87 90 94 96 93 91 80 65
100 100 100 100 100 100 100 89 64 42 32 28 29 27 24 22 21 22 28 30 34 45 54 57 56 53 54 68 79 88 91 92 90 86 85 82 84 89 93 98 100 100 91 73
100 100 100 99 97 87 56 37 30 30 29 28 25 25 22 21 25 29 31 40 48 59 64 67 68 70 60 65 72 75 77 83 88 92 97 93 94 92 95 99 100 100 97 84
99 98 84 70 53 36 30 30 30 29 28 26 24 21 25 29 30 38 42 49 62 68 74 74 81 87 88 89 88 91 97 98 95 98 100 100 100 96 100 100 100 100 100 97
74 58 44 34 29 30 30 28 26 26 23 23 28 32 38 39 38 47 57 66 77 79 79 88 94 96 94 94 96 99 100 100 100 100 100 100 100 100 100 100 100 100 100 100
33 28 29 30 29 28 28 28 22 23 28 33 36 43 46 44 47 65 73 86 90 95 99 100 100 100 100 95 96 100 99 94 96 100 100 100 100 100 100 100 100 100 100 100
33 32 31 29 31 32 28 23 24 29 29 31 35 56 56 48 56 76 80 80 85 97 100 100 99 96 93 88 90 97 98 86 82 95 100 100 100 100 100 100 100 100 100 100

GFSNGP_500_rhum_012.txt.gz
RH
19 18 17 18 19 19 18 18 17 18 18 23 26 27 29 33 36 38 44 54 62 57 55 59 63 63 57 46 40 39 42 52 53 54 43 27 17 11 8 12 14 41 99 100
20 20 21 21 21 21 20 19 18 18 18 21 24 26 32 41 47 52 55 62 63 65 69 70 64 54 46 42 39 42 57 62 56 46 29 18 11 8 11 13 17 83 100 92
19 20 22 21 22 22 20 18 18 18 18 19 23 26 34 42 48 61 72 77 76 80 77 69 60 52 43 41 45 55 65 59 43 26 18 13 9 12 15 23 49 66 77 74
16 20 20 21 22 23 21 19 19 19 20 21 25 29 37 38 46 67 82 80 80 80 73 62 54 45 42 47 55 66 62 44 27 19 13 9 12 16 17 58 45 79 79 55
19 21 21 20 21 23 21 20 21 22 26 26 27 34 40 44 52 68 76 78 78 70 57 51 45 41 48 60 62 65 47 32 20 13 10 12 16 22 47 80 86 79 52 55
23 22 20 19 21 22 21 22 26 28 33 30 31 38 46 47 59 71 75 74 67 59 53 45 40 42 50 61 70 53 35 22 14 10 13 16 20 42 72 84 78 69 54 53
22 21 19 20 22 22 20 23 43 44 36 33 35 47 47 57 78 84 84 73 62 54 47 42 43 51 70 76 66 40 20 16 10 12 17 18 25 59 66 69 76 74 60 64
23 22 20 21 22 22 23 27 35 42 34 36 41 48 48 68 82 84 72 64 57 52 50 50 54 74 80 74 48 20 16 12 12 16 18 21 38 63 71 72 82 81 71 70
23 22 22 22 23 23 23 25 45 46 40 41 44 46 54 79 80 72 68 65 63 58 54 62 77 84 80 56 25 19 14 12 13 15 17 24 45 67 66 72 87 82 72 74
22 27 26 27 24 22 23 37 52 45 42 41 50 47 70 71 71 74 73 69 65 64 66 77 84 82 58 25 22 16 13 14 14 13 20 28 49 75 71 77 86 83 74 76
23 27 26 24 24 25 44 54 46 48 44 49 50 74 73 69 75 74 74 74 74 73 80 85 81 60 32 24 18 14 14 16 12 13 26 33 41 76 75 72 87 82 82 72
36 34 26 27 33 48 45 44 49 39 37 51 81 82 75 83 90 93 89 82 82 89 89 81 57 33 28 20 16 14 16 16 13 17 33 40 43 71 77 76 86 87 79 69
31 33 45 50 50 47 40 40 32 38 68 84 85 88 92 98 99 96 91 89 88 89 79 55 35 26 22 17 16 18 19 16 16 24 40 44 57 88 93 82 88 88 80 71
53 51 44 43 42 42 43 45 58 88 92 80 80 82 96 100 99 99 95 88 90 72 49 34 27 23 18 18 18 21 23 18 26 35 42 61 86 93 93 97 98 90 84 74
40 34 38 41 48 60 78 85 100 97 93 92 94 97 100 100 100 98 93 87 70 45 31 28 24 20 20 20 23 25 29 29 36 47 71 81 82 86 88 95 93 91 85 75
59 68 70 78 82 86 94 96 91 97 100 100 98 100 100 100 96 91 86 68 42 30 28 25 19 21 22 23 29 31 36 38 44 46 59 77 83 87 92 92 89 88 84 75
79 75 70 74 80 93 95 99 100 100 100 98 100 100 99 92 89 83 57 36 30 28 23 18 20 22 23 29 36 39 43 45 56 52 55 81 87 96 89 83 89 92 87 78
90 88 85 90 100 100 100 100 100 100 100 100 100 99 97 91 74 50 35 30 27 19 17 20 22 24 27 41 46 48 50 53 60 56 67 95 92 79 76 79 91 94 90 82
84 96 95 99 100 100 100 100 100 100 100 100 99 97 82 64 44 30 28 22 16 15 20 23 26 32 39 51 55 58 60 66 76 77 94 100 96 85 83 85 88 93 94 90
81 79 96 100 100 100 100 100 100 100 100 99 84 67 57 37 29 25 18 16 17 21 23 25 31 42 51 59 64 64 71 80 91 95 92 94 94 90 88 88 90 98 100 99
95 100 100 100 100 100 100 100 100 98 82 71 58 48 31 29 21 16 19 22 26 29 27 32 46 56 68 71 75 67 73 82 86 89 91 96 99 100 99 96 92 98 100 99
100 100 100 100 100 100 100 94 80 72 62 48 34 30 25 19 16 22 28 32 37 36 37 44 61 71 76 85 92 80 77 82 89 94 98 100 100 100 100 100 100 100 100 99
100 100 100 100 97 88 82 74 60 42 33 32 29 24 19 17 23 23 21 36 44 41 48 60 79 79 81 96 96 96 98 100 100 100 100 100 100 100 100 100 100 98 100 100
100 99 96 93 83 68 52 37 33 34 31 28 26 23 20 22 23 23 26 50 52 49 61 71 84 94 97 100 100 97 98 96 98 100 98 96 100 100 100 100 100 99 100 100
94 90 74 53 41 34 33 33 32 34 34 31 27 24 27 25 20 20 28 57 61 57 75 78 77 92 100 99 93 88 87 87 89 95 100 100 95 100 100 100 100 100 100 100
42 36 37 38 37 37 38 39 36 35 32 26 25 28 26 23 19 18 28 62 69 66 96 99 97 89 87 91 94 93 89 88 86 84 77 71 82 100 100 100 100 100 100 100
27 32 36 39 43 41 40 40 40 35 28 26 27 28 29 25 18 17 27 54 71 73 92 100 100 100 95 97 98 92 86 79 76 48 37 38 49 77 100 100 100 100 100 100

GFSNGP_500_rhum_015.txt.gz
RH
26 25 23 20 18 18 19 19 19 18 17 17 18 18 20 24 27 31 33 34 37 47 63 76 87 86 78 64 52 47 43 32 29 28 39 52 60 55 28 20 12 9 13 17
22 20 20 21 21 21 21 21 21 20 17 19 20 30 35 32 31 32 35 36 39 50 74 89 87 76 68 60 53 41 36 34 34 43 55 66 59 34 22 12 10 14 19 30
19 19 19 19 21 21 22 21 22 21 19 20 23 34 41 38 33 34 36 38 39 58 78 82 74 72 66 56 45 40 39 41 46 51 65 60 38 23 12 12 16 39 70 62
19 18 17 18 20 22 22 21 21 21 20 20 31 44 42 38 34 35 40 41 49 73 76 76 72 66 58 53 50 50 49 51 55 60 62 43 24 14 12 13 18 46 65 62
25 19 17 17 21 23 23 22 22 23 23 21 24 35 42 39 35 39 45 45 47 64 79 76 70 65 64 59 56 56 59 65 64 63 45 27 16 13 13 16 22 45 57 64
28 26 21 21 23 24 24 21 22 24 23 22 24 41 46 42 41 45 50 42 56 82 80 75 69 65 65 59 58 64 66 69 63 46 30 19 13 14 13 19 29 53 56 70
29 25 19 24 24 25 23 23 23 25 24 22 37 55 53 46 46 51 46 51 75 78 77 72 78 77 63 64 70 69 70 60 44 29 21 14 14 12 15 21 38 54 56 76
24 24 18 23 22 24 24 24 25 26 24 26 53 57 51 49 47 49 54 76 78 81 86 94 81 66 72 70 72 72 57 40 29 22 16 15 15 11 20 26 50 63 69 80
37 30 27 26 24 23 23 24 27 26 26 43 52 51 49 42 38 48 74 84 92 98 99 86 76 80 76 77 76 56 37 29 23 17 16 17 13 13 27 30 48 74 73 79
41 40 36 30 29 27 27 30 29 27 33 43 47 44 37 34 47 80 78 84 93 92 83 85 90 87 79 77 57 37 30 24 18 17 19 19 14 22 36 38 47 78 81 85
36 42 38 35 35 37 32 28 28 36 43 44 41 39 37 46 83 86 88 93 91 90 92 94 91 85 77 55 37 30 25 19 17 18 21 20 22 34 43 44 63 86 90 92
44 44 34 33 35 34 37 41 41 43 44 45 50 54 62 84 99 98 93 93 96 100 100 96 90 73 54 37 30 24 18 18 19 22 26 25 33 38 47 76 90 94 98 98
36 40 38 38 46 52 50 47 42 45 58 69 74 74 80 96 86 82 89 98 100 100 97 94 72 54 36 28 21 16 17 20 23 29 31 32 41 64 85 83 83 88 99 93
62 59 55 65 58 48 42 59 75 71 74 86 88 87 84 88 100 100 100 100 100 100 97 74 55 35 25 17 13 16 20 23 30 37 38 40 44 58 79 84 85 90 94 89
70 63 59 48 37 46 83 78 77 76 83 73 77 88 100 100 100 100 100 100 100 96 72 52 32 23 14 13 16 19 23 30 38 42 43 52 52 53 79 88 97 100 95 88
36 34 49 66 64 68 89 96 97 97 78 81 96 100 100 100 100 100 100 100 92 65 46 30 20 13 15 19 20 22 29 39 46 48 52 61 61 62 86 99 91 85 84 90
68 82 80 80 87 96 100 100 100 94 100 100 100 100 100 100 100 100 97 88 58 43 29 18 13 16 21 25 23 26 40 49 55 58 63 72 72 91 100 90 85 82 79 88
88 84 80 82 95 98 98 93 99 100 100 100 100 100 100 100 99 99 79 55 40 27 19 14 17 18 29 29 26 35 49 57 64 74 80 90 99 100 100 100 91 86 89 92
85 84 84 95 96 84 97 100 100 100 100 100 100 100 100 98 92 73 55 39 27 19 15 18 17 22 34 33 34 54 60 67 72 82 90 94 99 100 100 99 98 98 98 96
70 69 68 80 99 100 100 100 100 100 100 100 100 99 96 89 79 59 39 25 21 15 17 19 18 27 39 36 53 68 71 85 77 81 93 94 94 93 93 96 99 100 100 100
73 79 96 100 100 100 100 100 100 100 100 100 99 95 88 77 49 34 27 22 19 21 22 19 19 40 44 45 71 79 89 98 99 100 100 100 100 100 100 98 100 100 100 100
100 100 100 100 100 100 100 100 100 100 100 98 93 81 61 39 33 30 27 22 20 24 25 18 29 52 50 58 81 91 100 100 100 100 100 100 100 100 100 100 100 100 100 100
98 98 100 100 100 100 100 100 98 96 94 79 57 40 33 34 32 30 23 23 24 26 26 17 31 55 59 72 76 94 100 100 100 100 100 100 100 100 100 100 100 100 100 100
100 100 100 100 100 100 93 88 77 55 37 32 34 38 37 34 34 32 26 26 28 28 23 18 33 57 66 89 96 93 92 98 100 100 98 95 95 93 86 85 97 100 100 100
100 96 87 73 52 34 24 23 26 33 38 39 39 43 47 44 33 28 31 32 30 28 21 20 31 54 65 89 100 99 100 100 100 100 93 84 82 82 62 42 51 84 100 100
26 22 17 16 16 16 20 31 36 40 39 38 44 48 40 34 32 34 36 32 30 27 20 20 28 47 60 82 97 100 100 100 100 97 86 77 74 74 57 47 43 51 85 100
17 14 14 15 20 31 46 50 47 44 47 48 40 35 35 35 38 42 38 35 32 26 21 23 32 50 63 89 100 100 100 100 100 89 85 73 62 64 57 55 55 48 49 85